TimeMDT,TemperatureF,Dew PointF,Humidity,Sea Level PressureIn,VisibilityMPH,Wind Direction,Wind SpeedMPH,Gust SpeedMPH,PrecipitationIn,Events,Conditions,WindDirDegrees,DateUTC
12:56 AM,35.1,30.0,82,30.60,10.0,WNW,3.5,-,N/A,,Overcast,300,2012-10-04 06:56:00
1:56 AM,35.1,30.0,82,30.59,10.0,NNW,4.6,-,N/A,,Overcast,340,2012-10-04 07:56:00
2:56 AM,34.0,30.0,85,30.58,10.0,NNE,3.5,-,N/A,,Overcast,30,2012-10-04 08:56:00
3:56 AM,34.0,30.0,85,30.58,10.0,NNW,3.5,-,N/A,,Overcast,340,2012-10-04 09:56:00
4:15 AM,33.8,30.2,87,30.39,10.0,NNE,3.5,-,N/A,,Overcast,30,2012-10-04 10:15:00
4:56 AM,34.0,30.0,85,30.56,10.0,NNW,5.8,-,N/A,,Overcast,330,2012-10-04 10:56:00
5:05 AM,33.8,30.2,87,30.39,10.0,North,6.9,-,N/A,,Overcast,360,2012-10-04 11:05:00
5:56 AM,33.1,30.0,89,30.56,10.0,North,8.1,-,N/A,,Overcast,360,2012-10-04 11:56:00
6:06 AM,33.8,30.2,87,30.38,10.0,North,4.6,-,N/A,,Overcast,360,2012-10-04 12:06:00
6:16 AM,33.8,30.2,87,30.38,10.0,NNE,4.6,-,N/A,,Overcast,20,2012-10-04 12:16:00
6:56 AM,33.1,30.0,89,30.56,10.0,North,3.5,-,N/A,,Overcast,10,2012-10-04 12:56:00
7:56 AM,33.1,30.9,92,30.55,10.0,NNE,4.6,-,N/A,,Overcast,20,2012-10-04 13:56:00
8:09 AM,33.8,30.2,87,30.37,10.0,North,5.8,-,N/A,,Overcast,10,2012-10-04 14:09:00
8:56 AM,33.1,30.0,89,30.55,10.0,North,10.4,-,N/A,,Overcast,10,2012-10-04 14:56:00
9:47 AM,33.8,30.2,87,30.38,10.0,NNE,8.1,-,N/A,,Overcast,20,2012-10-04 15:47:00
9:56 AM,34.0,30.9,89,30.55,10.0,North,6.9,-,N/A,,Overcast,10,2012-10-04 15:56:00
10:11 AM,35.6,30.2,81,30.38,10.0,NNE,6.9,-,N/A,,Overcast,30,2012-10-04 16:11:00
10:56 AM,36.0,30.9,82,30.54,10.0,North,9.2,-,N/A,,Overcast,10,2012-10-04 16:56:00
11:17 AM,37.4,32.0,81,30.37,10.0,NNE,9.2,-,N/A,,Overcast,20,2012-10-04 17:17:00
11:56 AM,37.9,30.9,76,30.53,10.0,North,11.5,-,N/A,,Overcast,10,2012-10-04 17:56:00
12:22 PM,37.4,30.2,75,30.37,10.0,North,10.4,-,N/A,,Overcast,10,2012-10-04 18:22:00
12:56 PM,39.0,28.0,65,30.53,10.0,North,8.1,-,N/A,,Overcast,360,2012-10-04 18:56:00
1:11 PM,39.2,28.4,65,30.36,10.0,NNE,9.2,-,N/A,,Overcast,20,2012-10-04 19:11:00
1:56 PM,42.1,28.9,60,30.51,10.0,North,9.2,16.1,N/A,,Scattered Clouds,10,2012-10-04 19:56:00
2:56 PM,41.0,25.0,53,30.51,10.0,NNW,5.8,-,N/A,,Overcast,340,2012-10-04 20:56:00
3:56 PM,42.1,27.0,55,30.50,10.0,North,10.4,-,N/A,,Overcast,350,2012-10-04 21:56:00
4:56 PM,42.1,25.0,51,30.50,10.0,North,8.1,-,N/A,,Overcast,10,2012-10-04 22:56:00
5:56 PM,41.0,25.0,53,30.51,10.0,NNW,9.2,-,N/A,,Overcast,340,2012-10-04 23:56:00
6:56 PM,41.0,24.1,51,30.51,10.0,North,4.6,-,N/A,,Overcast,10,2012-10-05 00:56:00
7:56 PM,39.0,27.0,62,30.53,10.0,NNE,4.6,-,N/A,,Overcast,30,2012-10-05 01:56:00
8:56 PM,39.0,28.0,65,30.54,10.0,NE,3.5,-,N/A,,Overcast,50,2012-10-05 02:56:00
9:56 PM,39.0,28.0,65,30.53,10.0,Calm,Calm,-,N/A,,Overcast,0,2012-10-05 03:56:00
10:56 PM,37.0,28.9,73,30.53,10.0,Calm,Calm,-,N/A,,Overcast,0,2012-10-05 04:56:00
11:56 PM,37.0,28.0,70,30.52,10.0,Calm,Calm,-,N/A,,Scattered Clouds,0,2012-10-05 05:56:00